Miscellaneous Local Product
Issued by NWS Hastings, NE

Home | Current Version | Previous Version | Graphics & Text | Print | Product List | Glossary On
Versions: 1 2 3 4 5 6 7 8 9 10 11 12 13 14 15 16 17 18 19 20 21 22 23 24 25 26 27 28 29 30 31 32 33 34 35 36 37 38 39 40 41 42 43 44 45 46 47 48 49 50
000
AXUS43 KGID 222202
MISGRI

GID CWA HOURLY WEATHER ROUNDUP
NATIONAL WEATHER SERVICE HASTINGS NE
500 PM CDT FRI MAY 22 2015

NOTE: "FAIR" INDICATES FEW OR NO CLOUDS BELOW 12,000 FEET WITH NO
SIGNIFICANT WEATHER AND/OR OBSTRUCTIONS TO VISIBILITY.

...SOUTH CENTRAL NEBRASKA...

CITY           SKY/WX    TMP DP  RH WIND       PRES   REMARKS
GRAND ISLAND   CLOUDY    58  42  55 SE14      30.18F
HASTINGS       LGT RAIN  55  45  68 SE10G22   30.17S
KEARNEY        CLOUDY    52  48  87 E9        30.16F
ORD            LGT RAIN  53  44  71 E12       30.17F
YORK           CLOUDY    59  46  63 SE12G18   30.19F
AURORA         CLOUDY    60  41  49 SE18      30.18F
LEXINGTON      LGT RAIN  50  47  90 E13       30.14F
HOLDREGE       LGT RAIN  51  49  93 E15       30.15F
HEBRON         CLOUDY    60  45  56 SE9       30.18F

...NEBRASKA PANHANDLE...

CITY           SKY/WX    TMP DP  RH WIND       PRES   REMARKS
CHADRON        CLOUDY    53  43  68 SE10      30.07F
ALLIANCE       CLOUDY    48  44  86 SE18      30.06F
SCOTTSBLUFF    CLOUDY    49  46  90 SE14      30.05F
SIDNEY         LGT RAIN  48  47  96 E14       30.04S FOG

...WESTERN AND NORTH CENTRAL NEBRASKA...

CITY           SKY/WX    TMP DP  RH WIND       PRES   REMARKS
VALENTINE      LGT RAIN  50  43  77 SE22G29   30.17F
AINSWORTH      LGT RAIN  49  45  88 SE14G20   30.18F
ONEILL         LGT RAIN  51  48  89 S10       30.23S
BROKEN BOW     LGT RAIN  52  46  80 E13G24    30.15F
IMPERIAL       CLOUDY    49  47  93 E18G25    30.06F
NORTH PLATTE   LGT RAIN  47  44  90 E14G23    30.13S
MCCOOK         CLOUDY    51  49  92 E14       30.09S FOG

...EASTERN NEBRASKA...

CITY           SKY/WX    TMP DP  RH WIND       PRES   REMARKS
NORFOLK        LGT RAIN  54  48  80 E6        30.23F
SO SIOUX CITY  CLOUDY    69  40  34 SW24      30.20S
TEKAMAH        LGT RAIN  61  48  62 S22G32    30.23S
COLUMBUS       CLOUDY    61  45  55 E7        30.23F
ALBION         LGT RAIN  54  45  70 E5        30.21F
OMAHA EPPLEY   CLOUDY    63  49  60 E9        30.22F
OFFUTT AFB     PTSUNNY   67  49  53 E5        30.21F
MILLARD        PTSUNNY   66  48  51 E3        30.21F
LINCOLN        CLOUDY    64  45  49 SE10      30.21S
NEBRASKA CITY  CLOUDY    64  43  46 SE6       30.22F
BEATRICE       CLOUDY    63  43  49 SE9       30.20S
FALLS CITY     CLOUDY    65  47  52 SE10      30.21F

...NORTHERN KANSAS...

CITY           SKY/WX    TMP DP  RH WIND       PRES   REMARKS
GOODLAND       CLOUDY    55  52  89 SE20      30.00F
HILL CITY      CLOUDY    55  49  80 SE10      30.10F
NORTON         DRIZZLE   50  46  87 E10G16    30.10F
PHILLIPSBURG   LGT RAIN  55  55 100 E10       30.14S
SMITH CENTER   CLOUDY    52  52 100 E15       30.15F FOG
HAYS           CLOUDY    55  46  71 SE15      30.11F
RUSSELL        CLOUDY    56  52  86 SE14      30.11F
CONCORDIA      CLOUDY    58  49  72 S13       30.17S
SALINA         LGT RAIN  59  55  87 SE10      30.16F FOG
TOPEKA         CLOUDY    63  46  54 SE10      30.22S



USA.gov is the U.S. government's official web portal to all federal, state and local government web resources and services.